Weather History for KBKD - December, 2013

Change the Weather History Date:

Wednesday, December 18, 2013

  Actual Average (KABI) Record (KABI)
Temperature  
Mean Temperature 56 °F 44 °F  
Max Temperature 71 °F 56 °F 78 °F (1980)
Min Temperature 40 °F 33 °F 12 °F (1983)
Degree Days  
Heating Degree Days 10 20  
Month to date heating degree days 339  
Since 1 July heating degree days 772  
Cooling Degree Days 0 0  
Month to date cooling degree days 0  
Year to date cooling degree days 2408  
Growing Degree Days 6 (Base 50)    
Moisture  
Dew Point 38 °F    
Average Humidity 53    
Maximum Humidity 75    
Minimum Humidity 28    
Precipitation  
Precipitation 0.00 in 0.04 in 0.84 in (1952)
Month to date precipitation 0.73  
Year to date precipitation 24.32  
Sea Level Pressure  
Sea Level Pressure 30.11 in    
Wind  
Wind Speed 10 mph (South)    
Max Wind Speed 18 mph    
Max Gust Speed 26 mph    
Visibility 10 miles    
Events      
T = Trace of Precipitation, MM = Missing Value Source: NWS Daily Summary

Daily Weather History Graph

Daily Weather History Graph

Search for Another Location

Airport or City:

Trip Planner

Search our weather history database for the weather conditions in past years. The results will help you decide how hot, cold, wet, or windy it might be!

Date:

Astronomy

Dec. 18, 2013 Rise Set
Actual Time 7:32 AM CST 5:32 PM CST
Civil Twilight 7:05 AM CST 5:59 PM CST
Nautical Twilight 6:34 AM CST 6:30 PM CST
Astronomical Twilight 6:04 AM CST 7:00 PM CST
Moon 7:01 PM CST (12/18) 8:17 AM CST (12/18)
Length of Visible Light 10h 54m
Length of Day
10h 00m
Full, 98% of the Moon is Illuminated
Dec 18
Full
Dec 25
Last Quarter
Jan 1
New
Jan 7
First Quarter
Jan 15
Full

Hourly Weather History & Observations

Time (CST) Temp. Windchill Dew Point Humidity Pressure Visibility Wind Dir Wind Speed Gust Speed Precip Events Conditions
12:15 AM 47.8 °F - 32.9 °F 56% 30.25 in 10.0 mi SSE 11.5 mph - N/A   Clear
12:35 AM 49.5 °F - 33.1 °F 53% 30.24 in 10.0 mi SSE 11.5 mph - N/A   Clear
12:55 AM 47.3 °F - 32.9 °F 57% 30.24 in 10.0 mi Calm Calm - N/A   Clear
1:15 AM 46.4 °F 43.5 °F 32.9 °F 59% 30.24 in 10.0 mi South 5.8 mph - N/A   Clear
1:35 AM 43.9 °F 42.3 °F 33.3 °F 66% 30.24 in 10.0 mi SW 3.5 mph - N/A   Clear
1:55 AM 42.8 °F - 33.8 °F 70% 30.24 in 10.0 mi Calm Calm - N/A   Clear
2:15 AM 42.8 °F 41.1 °F 32.5 °F 67% 30.23 in 10.0 mi SSE 3.5 mph - N/A   Clear
2:35 AM 42.1 °F - 32.9 °F 70% 30.23 in 10.0 mi Calm Calm - N/A   Clear
2:55 AM 40.5 °F 38.4 °F 33.3 °F 75% 30.23 in 10.0 mi SSW 3.5 mph - N/A   Clear
3:15 AM 42.6 °F 39.0 °F 33.3 °F 69% 30.23 in 10.0 mi South 5.8 mph - N/A   Clear
3:35 AM 41.0 °F 35.8 °F 32.4 °F 71% 30.22 in 10.0 mi SSE 8.1 mph - N/A   Clear
3:55 AM 42.8 °F 37.0 °F 33.1 °F 69% 30.22 in 10.0 mi SSE 10.4 mph - N/A   Clear
4:15 AM 43.5 °F 37.9 °F 32.9 °F 66% 30.21 in 10.0 mi SSE 10.4 mph - N/A   Clear
4:35 AM 42.4 °F 37.5 °F 32.9 °F 69% 30.21 in 10.0 mi SSE 8.1 mph - N/A   Clear
4:55 AM 41.9 °F 37.5 °F 32.9 °F 70% 30.20 in 10.0 mi SSE 6.9 mph - N/A   Clear
5:15 AM 41.4 °F 36.8 °F 32.7 °F 71% 30.20 in 10.0 mi SSE 6.9 mph - N/A   Clear
5:35 AM 41.0 °F 36.4 °F 32.4 °F 71% 30.20 in 10.0 mi SSE 6.9 mph - N/A   Clear
5:50 AM 40.8 °F 36.9 °F 32.7 °F 73% 30.20 in 10.0 mi SSE 5.8 mph - N/A   Clear
6:15 AM 41.9 °F 39.0 °F 33.1 °F 71% 30.20 in 10.0 mi South 4.6 mph - N/A   Clear
6:35 AM 41.4 °F 36.8 °F 32.9 °F 72% 30.20 in 10.0 mi SSE 6.9 mph - N/A   Clear
6:55 AM 42.6 °F 37.2 °F 33.8 °F 71% 30.20 in 10.0 mi South 9.2 mph - N/A   Clear
7:15 AM 42.8 °F 38.6 °F 33.8 °F 70% 30.20 in 10.0 mi South 6.9 mph - N/A   Clear
7:35 AM 43.7 °F 41.1 °F 34.0 °F 69% 30.20 in 10.0 mi South 4.6 mph - N/A   Clear
7:55 AM 44.4 °F 40.0 °F 34.5 °F 68% 30.20 in 10.0 mi South 8.1 mph - N/A   Clear
8:15 AM 46.2 °F - 34.7 °F 64% 30.20 in 10.0 mi North - - N/A   Clear
8:35 AM 48.4 °F - 35.8 °F 62% 30.20 in 10.0 mi SSE 5.8 mph - N/A   Clear
8:55 AM 51.1 °F - 36.3 °F 57% 30.20 in 10.0 mi North - - N/A   Clear
9:15 AM 53.2 °F - 36.9 °F 54% 30.20 in 10.0 mi South 3.5 mph - N/A   Clear
9:35 AM 58.6 °F - 37.8 °F 46% 30.21 in 10.0 mi SSW 12.7 mph 17.3 mph N/A   Clear
9:55 AM 60.1 °F - 37.2 °F 43% 30.21 in 10.0 mi SW 13.8 mph - N/A   Clear
10:15 AM 61.5 °F - 37.6 °F 41% 30.21 in 10.0 mi SW 15.0 mph - N/A   Clear
10:35 AM 63.0 °F - 37.8 °F 39% 30.20 in 10.0 mi SW 15.0 mph 24.2 mph N/A   Clear
10:55 AM 63.9 °F - 38.1 °F 39% 30.20 in 10.0 mi SW 11.5 mph - N/A   Clear
11:15 AM 65.7 °F - 39.0 °F 38% 30.18 in 10.0 mi SW 11.5 mph - N/A   Clear
11:35 AM 67.1 °F - 39.7 °F 37% 30.18 in 10.0 mi SW 10.4 mph 16.1 mph N/A   Clear
11:55 AM 68.2 °F - 40.5 °F 36% 30.16 in 10.0 mi SSW 15.0 mph - N/A   Clear
12:15 PM 68.0 °F - 40.8 °F 37% 30.15 in 10.0 mi SW 12.7 mph 18.4 mph N/A   Clear
12:35 PM 68.5 °F - 39.9 °F 35% 30.13 in 10.0 mi SSW 16.1 mph 21.9 mph N/A   Clear
12:55 PM 68.2 °F - 38.8 °F 34% 30.11 in 10.0 mi SW 13.8 mph 20.7 mph N/A   Clear
1:15 PM 69.3 °F - 38.8 °F 33% 30.10 in 10.0 mi SSW 16.1 mph - N/A   Clear
1:35 PM 70.2 °F - 36.5 °F 29% 30.08 in 10.0 mi SSW 18.4 mph 24.2 mph N/A   Clear
1:55 PM 69.6 °F - 37.6 °F 31% 30.06 in 10.0 mi SSW 12.7 mph - N/A   Clear
2:15 PM 70.0 °F - 37.4 °F 30% 30.05 in 10.0 mi SSW 13.8 mph 20.7 mph N/A   Clear
2:35 PM 69.8 °F - 35.2 °F 28% 30.03 in 10.0 mi SSW 16.1 mph 20.7 mph N/A   Clear
2:55 PM 70.9 °F - 36.7 °F 29% 30.03 in 10.0 mi South 15.0 mph 19.6 mph N/A   Clear
3:15 PM 70.9 °F - 35.8 °F 28% 30.02 in 10.0 mi South 13.8 mph 20.7 mph N/A   Clear
3:35 PM 71.1 °F - 36.5 °F 28% 30.01 in 10.0 mi SSW 16.1 mph 19.6 mph N/A   Clear
3:55 PM 70.5 °F - 36.5 °F 29% 30.00 in 10.0 mi South 17.3 mph 20.7 mph N/A   Clear
4:15 PM 69.4 °F - 37.8 °F 31% 30.00 in 10.0 mi South 13.8 mph 17.3 mph N/A   Clear
4:35 PM 68.5 °F - 37.6 °F 32% 29.99 in 10.0 mi SSW 17.3 mph 20.7 mph N/A   Clear
4:55 PM 67.6 °F - 39.0 °F 35% 29.99 in 10.0 mi South 12.7 mph 23.0 mph N/A   Clear
5:15 PM 66.6 °F - 42.3 °F 41% 29.99 in 10.0 mi South 11.5 mph 18.4 mph N/A   Clear
5:35 PM 65.5 °F - 43.0 °F 44% 29.98 in 10.0 mi SSE 10.4 mph - N/A   Clear
5:55 PM 64.4 °F - 43.3 °F 46% 29.97 in 10.0 mi SSE 11.5 mph 16.1 mph N/A   Clear
6:15 PM 63.7 °F - 44.1 °F 49% 29.97 in 10.0 mi SSE 10.4 mph - N/A   Clear
6:35 PM 62.6 °F - 44.1 °F 51% 29.97 in 10.0 mi SSE 9.2 mph - N/A   Clear
6:55 PM 62.4 °F - 44.6 °F 52% 29.97 in 10.0 mi SSE 11.5 mph - N/A   Clear
7:15 PM 62.2 °F - 45.3 °F 54% 29.97 in 10.0 mi SSE 13.8 mph 18.4 mph N/A   Clear
7:35 PM 62.4 °F - 45.5 °F 54% 29.97 in 10.0 mi SSE 13.8 mph 20.7 mph N/A   Clear
7:55 PM 61.9 °F - 45.3 °F 55% 29.97 in 10.0 mi South 15.0 mph 20.7 mph N/A   Clear
8:15 PM 61.7 °F - 45.1 °F 55% 29.97 in 10.0 mi South 16.1 mph 23.0 mph N/A   Clear
8:35 PM 61.2 °F - 45.1 °F 56% 29.97 in 10.0 mi South 16.1 mph 23.0 mph N/A   Clear
8:55 PM 61.2 °F - 45.0 °F 55% 29.97 in 10.0 mi South 17.3 mph 23.0 mph N/A   Clear
9:15 PM 60.8 °F - 44.8 °F 56% 29.97 in 10.0 mi South 17.3 mph 25.3 mph N/A   Clear
9:35 PM 60.1 °F - 45.0 °F 57% 29.97 in 10.0 mi South 17.3 mph 20.7 mph N/A   Clear
9:55 PM 59.7 °F - 45.0 °F 58% 29.96 in 10.0 mi South 17.3 mph 25.3 mph N/A   Clear
10:15 PM 59.4 °F - 45.0 °F 59% 29.96 in 10.0 mi South 15.0 mph 24.2 mph N/A   Clear
10:35 PM 59.0 °F - 45.3 °F 60% 29.96 in 10.0 mi South 17.3 mph 21.9 mph N/A   Clear
10:55 PM 58.5 °F - 45.3 °F 62% 29.95 in 10.0 mi South 18.4 mph 23.0 mph N/A   Clear
11:15 PM 58.1 °F - 45.1 °F 62% 29.95 in 10.0 mi South 17.3 mph 23.0 mph N/A   Clear
11:35 PM 57.6 °F - 45.5 °F 64% 29.94 in 10.0 mi South 17.3 mph - N/A   Clear
11:55 PM 58.1 °F - 45.5 °F 63% 29.93 in 10.0 mi South 17.3 mph 26.5 mph N/A   Clear